Regional Weather Roundup
Issued by NWS Little Rock, AR

Home | Current Version | Previous Version | Graphics & Text | Print | Product List | Glossary On
Versions: 1 2 3 4 5 6 7 8 9 10 11 12 13 14 15 16 17 18 19 20 21 22 23 24 25 26 27 28 29 30 31
000
ASUS44 KLZK 262105
RWRLZK

WEATHER ROUNDUP FOR ARKANSAS
NATIONAL WEATHER SERVICE LITTLE ROCK AR
300 PM CST SUN FEB 26 2017

NOTE: "FAIR" INDICATES FEW OR NO CLOUDS BELOW 12,000 FEET WITH NO
SIGNIFICANT WEATHER AND/OR OBSTRUCTIONS TO VISIBILITY.

ARZ001-003-010-029-262200-
NORTHWEST ARKANSAS

CITY           SKY/WX    TMP DP  RH WIND       PRES   REMARKS
FAYETTEVILLE   CLOUDY    50  27  40 S9        29.94F
FORT SMITH     CLOUDY    55  27  34 E10       29.93F
HARRISON       CLOUDY    50  25  37 SE9       29.98F
BENTONVILLE    CLOUDY    50  25  37 SE6       29.95F
ROGERS         CLOUDY    48  28  46 E7        29.95F
SILOAM SPGS    CLOUDY    52  27  37 SE5       29.94S
HIGHFILL       CLOUDY    51  26  37 S7        29.94F
SPRINGDALE     CLOUDY    50  25  37 E9G15     29.95F
$$

ARZ004-005-016-262200-
NORTH CENTRAL ARKANSAS

CITY           SKY/WX    TMP DP  RH WIND       PRES   REMARKS
BATESVILLE     CLOUDY    55  21  26 S6        30.06F
FLIPPIN        CLOUDY    50  21  32 E9        29.99F
MTN HOME       CLOUDY    49  23  36 E8        30.01F
$$

ARZ040-041-262200-
WEST CENTRAL ARKANSAS

CITY           SKY/WX    TMP DP  RH WIND       PRES   REMARKS
MENA           CLOUDY    55  32  41 E6        29.96S
MOUNT IDA      CLOUDY    57  26  30 VRB7      29.94F
$$

ARZ009-017-025-026-028-262200-
NORTHEAST ARKANSAS

CITY           SKY/WX    TMP DP  RH WIND       PRES   REMARKS
CORNING        FAIR      54  25  32 S7        30.12R
JONESBORO      CLOUDY    56  24  29 S15       30.09S
NEWPORT        CLOUDY    55  24  30 SE10        N/A
WALNUT RIDGE   CLOUDY    54  23  30 S8        30.09F
BLYTHEVILLE    MOSUNNY   57  21  24 SE9       30.08F
$$

ARZ022-023-033-042-044-262200-
CENTRAL ARKANSAS

CITY           SKY/WX    TMP DP  RH WIND       PRES   REMARKS
LITTLE ROCK    PTSUNNY   57  30  35 SE12      30.02F
N LITTLE ROCK    N/A     56  31  39 SE9       30.03F
JACKSONVILLE   MOSUNNY   57  32  38 SE13      30.01F
SEARCY         PTSUNNY   55  28  35 SE10      30.07F
HOT SPRINGS    LGT RAIN  58  26  29 S10G17    29.99F
RUSSELLVILLE   CLOUDY    54  28  36 E9        29.97F
CLINTON        PTSUNNY   54  27  35 E8        30.02F
$$

ARZ036-262200-
EAST ARKANSAS

CITY           SKY/WX    TMP DP  RH WIND       PRES   REMARKS
WEST MEMPHIS   PTSUNNY   59  23  25 S15       30.08F
$$

ARZ050-053-066-070-073-262200-
SOUTHWEST ARKANSAS

CITY           SKY/WX    TMP DP  RH WIND       PRES   REMARKS
ARKADELPHIA    CLOUDY    63  30  28 S8        29.99F
CAMDEN         PTSUNNY   63  21  20 S8        30.01F
TEXARKANA      CLOUDY    60  32  34 S13       29.97F
EL DORADO      CLOUDY    66  28  24 S8        30.00F
DE QUEEN       CLOUDY    57  34  41 S5        29.95F
$$

ARZ056-057-069-262200-
SOUTHEAST ARKANSAS

CITY           SKY/WX    TMP DP  RH WIND       PRES   REMARKS
PINE BLUFF     SUNNY     60  35  39 E14       30.02F
STUTTGART      CLOUDY    57  25  28 SE12      30.06F
MONTICELLO     MOSUNNY   64  26  23 S9G16     30.03F

$$






USA.gov is the U.S. government's official web portal to all federal, state and local government web resources and services.